SCP
0 0 0 0 0 0 0 0 0 0 0 0 0 0 0 0 0 0 0 0 0 0 0 0 0 0 0 0 0 0 0 0 0 0 0 0 0 0
0 0 0 0 0 0 0 0 0 0 0 0 0 0 0 0 0 0 0 0 0 0 0 0 0 0 0 0 0 0 0 0 0 0 0 0 0 0
0 0 0 0 0 0 0 0 0 0 0 0 0 0 0 0 0 0 0 0 0 0 0 0 0 0 0 0 0 0 0 0 0 0 0 0 0 0
0 0 0 0 0 0 0 0 0 0 0 0 0 0 0 0 0 0 0 0 0 0 0 0 0 0 0 0 0 0 0 0 0 0 0 0 0 0
0 0 0 0 0 0 0 0 0 0 0 0 0 0 0 0 0 0 0 0 0 0 0 0 0 0 0 0 0 0 0 0 0 0 0 0 0 0
0 0 0 0 0 0 0 0 0 0 0 0 0 0 0 0 0 0 0 0 0 0 0 0 0 0 0 0 0 0 0 0 0 0 0 0 0 0
0 0 0 0 0 0 0 0 0 0 0 0 0 0 0 0 0 0 0 0 0 0 0 0 0 0 0 0 0 0 0 0 0 0 0 0 0 0
0 0 0 0 0 0 0 0 0 0 0 0 0 0 0 0 0 0 0 0 0 0 0 0 0 0 0 0 0 0 0 0 0 0 0 0 0 0
0 0 0 0 0 0 0 0 0 0 0 0 0 0 0 0 0 0 0 0 0 0 0 0 0 0 0 0 0 0 0 0 0 0 0 0 0 0
0 0 0 0 0 0 0 0 0 0 0 0 0 0 0 0 0 0 0 0 0 0 0 0 0 0 0 0 0 0 0 0 0 0 0 0 0 0
0 0 0 0 0 0 0 0 0 0 0 0 0 0 0 0 0 0 0 0 0 0 0 0 0 0 0 0 0 0 0 0 0 0 0 0 0 0
0 0 0 0 0 0 0 0 0 0 0 0 0 0 0 0 0 0 0 0 0 0 0 0 0 0 0 0 0 0 0 0 0 0 0 0 0 0
0 0 0 0 0 0 0 0 0 0 0 0 0 0 0 0 0 0 0 0 0 0 0 0 0 0 0 0 0 0 0 0 0 0 0 0 0 0
0 0 0 0 0 0 0 0 0 0 0 0 0 0 0 0 0 0 0 0 0 0 0 0 0 0 0 0 0 0 0 0 0 0 0 0 0 0
0 0 0 0 0 0 0 0 0 0 0 0 0 0 0 0 0 0 0 0 0 0 0 0 0 0 0 0 0 0 0 0 0 0 0 0 0 0
0 0 0 0 0 0 0 0 0 0 0 0 0 0 0 0 0 0 0 0 0 0 0 0 0 0 0 0 0 0 0 0 0 0 0 0 0 0
0 0 0 0 0 0 0 0 0 0 0 0 0 0 0 0 0 0 0 0 0 0 0 0 0 0 0 0 0 0 0 0 0 0 0 0 0 0
0 0 0 0 0 0 0 0 0 0 0 0 0 0 0 0 0 0 0 0 0 0 0 0 0 0 0 0 0 0 0 0 0 0 0 0 0 0
0 0 0 0 0 0 0 0 0 0 0 0 0 0 0 0 0 0 0 0 0 0 0 0 0 0 0 0 0 0 0 0 0 0 0 0 0 0
0 0 0 0 0 0 0 0 0 0 0 0 0 0 0 0 0 0 0 0 0 0 0 0 0 0 0 0 0 0 0 0 0 0 0 0 0 0
0 0 0 0 0 0 0 0 0 0 0 0 0 0 0 0 0 0 0 0 0 0 0 0 0 0 0 0 0 0 0 0 0 0 0 0 0 0
0 0 0 0 0 0 0 0 0 0 0 0 0 0 0 0 0 0 0 0 0 0 0 0 0 0 0 0 0 0 0 0 0 0 0 0 0 0
0 0 0 0 0 0 0 0 0 0 0 0 0 0 0 0 0 0 0 0 0 0 0 0 0 0 0 0 0 0 0 0 0 0 0 0 0 0
Wind_Speed
3 3 2 2 2 2 2 2 2 3 4 2 2 2 3 3 6 4 5 10 12 12 12 13 13 13 13 14 14 14 15 16 16 16 17 17 18 18
2 2 2 2 1 1 2 2 2 3 4 3 3 3 4 4 7 5 5 11 12 13 13 13 13 13 13 14 14 14 15 15 16 16 17 17 17 18
2 3 3 2 2 2 1 2 2 2 4 4 3 3 4 4 5 4 4 4 6 12 13 13 13 13 13 13 14 15 15 15 16 16 16 17 17 17
3 3 3 2 2 2 2 2 2 2 3 5 4 3 4 4 4 5 5 5 4 10 13 13 13 13 13 14 14 14 14 15 15 15 16 16 16 16
3 3 3 2 3 2 2 2 2 2 2 3 3 3 3 3 4 5 5 4 5 7 10 11 12 13 14 14 14 14 15 15 14 14 14 15 15 16
2 2 3 3 3 3 2 2 2 2 1 2 2 3 3 3 3 4 5 4 5 5 7 8 10 12 14 14 14 14 14 14 15 14 14 14 15 15
1 1 1 1 2 2 1 1 1 1 1 2 2 3 3 4 4 3 5 5 5 3 4 5 5 5 7 11 12 14 14 15 15 15 15 14 14 15
1 0 0 1 1 2 2 1 1 0 1 1 2 3 4 4 3 4 4 5 5 3 5 6 4 5 5 5 11 14 15 15 16 16 16 15 15 15
1 1 0 0 1 1 1 2 2 2 1 1 2 3 3 3 4 4 4 4 5 5 4 5 4 5 5 7 13 13 14 15 16 16 16 16 16 16
1 1 1 1 1 1 0 1 1 1 2 1 1 2 2 2 2 3 4 5 5 3 2 4 4 5 6 6 10 13 15 16 16 16 17 17 17 17
1 0 1 1 1 2 1 0 1 2 3 4 4 4 5 5 4 2 3 4 5 4 2 2 4 5 5 4 6 12 14 16 16 17 18 18 17 16
0 0 1 1 1 1 1 1 1 2 2 3 4 5 4 4 5 2 1 2 3 4 2 3 3 4 5 4 4 5 7 12 15 16 17 18 18 10
0 0 1 2 1 1 1 1 2 1 1 1 2 2 3 3 3 3 2 2 3 4 3 3 3 3 3 5 5 4 5 6 7 9 12 16 17 12
1 1 1 2 1 1 1 2 2 2 1 1 2 2 3 3 3 4 4 3 3 4 5 4 3 3 4 5 5 5 5 5 5 6 6 12 12 14
0 1 1 1 2 1 2 3 2 1 1 1 2 2 2 3 3 3 4 4 4 4 3 3 3 4 3 4 5 6 6 5 5 5 6 7 6 7
1 1 2 3 3 2 2 2 1 1 1 1 1 2 2 2 3 3 3 4 4 4 4 4 3 3 4 5 4 5 5 5 6 6 6 6 5 5
1 1 1 1 2 2 2 2 2 2 2 2 2 2 3 3 3 3 3 3 3 4 5 5 4 3 4 4 3 4 4 4 5 6 6 6 6 6
2 1 1 1 1 1 1 1 2 2 2 2 2 2 2 3 4 3 3 3 3 4 4 4 5 5 3 2 2 3 3 4 5 6 5 5 6 6
2 1 0 0 1 1 1 1 1 1 1 1 2 2 2 3 3 3 3 3 4 4 4 4 4 4 4 5 4 3 3 5 5 5 5 4 5 6
1 0 0 0 0 1 1 1 1 1 1 1 2 2 2 2 3 3 3 4 4 4 4 4 3 4 3 3 4 4 6 4 4 5 5 4 4 6
0 0 0 1 1 1 1 1 1 1 2 2 2 2 2 2 3 3 3 5 4 4 5 5 5 7 4 2 2 4 4 6 5 4 5 4 4 5
0 0 1 1 1 1 1 1 1 1 2 2 2 2 2 2 3 3 3 3 4 4 4 4 5 4 3 3 3 4 5 6 7 8 7 4 3 3
1 1 1 1 1 1 1 1 1 1 2 2 2 2 2 2 2 2 3 3 3 4 4 4 4 3 3 3 3 4 5 6 5 5 5 8 7 6
Wind_Direction
206 204 213 227 220 226 222 213 228 275 284 283 300 305 311 313 319 321 312 319 325 323 323 323 322 322 323 322 322 323 325 324 323 321 321 320 321 321
209 202 216 221 224 227 222 222 218 232 263 285 284 304 315 322 325 329 316 329 332 330 326 325 324 323 324 324 325 326 326 325 324 322 322 322 322 323
211 205 221 216 219 230 233 230 227 223 254 284 293 303 303 313 319 323 318 318 321 330 332 332 328 327 327 329 328 327 327 326 325 323 323 323 324 324
212 212 221 214 222 229 228 235 237 232 243 278 299 304 303 309 315 321 326 326 316 323 332 334 335 335 334 333 332 331 329 327 326 325 324 325 326 325
211 215 224 211 227 234 227 240 251 258 248 268 295 308 312 323 327 325 324 320 321 324 329 332 336 338 339 339 337 335 333 330 328 327 328 328 327 325
215 223 229 223 227 231 226 231 240 248 265 282 300 314 316 321 328 330 329 329 321 325 327 331 332 335 336 338 340 339 338 337 334 333 331 330 328 327
221 239 251 266 266 255 253 240 235 261 290 305 310 319 324 331 329 325 322 323 314 318 325 321 323 324 329 333 338 340 340 342 342 340 337 334 332 330
178 135 321 292 307 321 332 352 25 304 285 293 300 308 310 312 318 324 325 330 321 330 330 314 320 319 321 320 334 341 343 344 344 344 344 341 338 335
176 181 216 338 354 277 315 9 13 0 342 247 273 291 302 309 317 319 315 310 298 306 319 304 315 312 315 323 336 342 345 346 347 347 345 345 344 340
198 189 203 230 264 319 96 26 344 327 311 297 258 280 294 293 286 293 294 304 300 298 316 300 311 312 315 315 334 343 346 348 348 348 348 347 345 342
291 207 225 234 278 32 89 45 338 335 345 347 342 338 338 343 348 350 338 334 322 313 330 310 310 314 306 305 328 343 346 348 348 348 348 348 347 344
332 286 271 284 308 23 115 186 274 302 334 347 350 349 351 352 0 1 319 318 317 308 332 332 314 329 320 307 318 331 335 339 343 345 347 349 350 345
263 303 303 306 314 355 3 277 286 334 337 342 341 347 350 352 346 340 323 292 293 286 303 328 309 317 304 306 311 318 328 327 331 337 344 347 350 352
231 269 291 326 338 9 0 352 16 43 54 17 4 355 348 343 334 327 325 317 291 279 288 300 293 304 311 308 307 315 321 323 330 333 336 343 349 351
241 297 337 25 44 47 30 31 48 67 47 17 347 332 327 321 325 331 334 334 329 317 306 295 289 295 294 293 301 310 318 322 333 338 338 340 339 340
27 48 55 62 50 42 48 47 35 34 34 351 329 326 329 334 340 340 337 341 344 336 327 320 310 299 296 292 293 306 316 318 327 332 330 331 336 341
81 64 59 47 36 29 32 33 29 30 24 8 354 341 340 341 342 342 340 343 342 330 330 335 331 309 276 273 297 308 316 316 318 325 329 334 339 345
96 82 65 51 31 10 5 8 8 8 359 349 345 338 335 337 338 340 343 341 333 325 324 327 336 339 336 321 293 306 320 317 322 328 327 330 338 344
94 89 52 29 358 348 348 350 341 340 338 334 331 331 333 335 338 337 340 338 332 326 323 324 333 344 345 338 329 350 333 325 328 332 335 331 327 330
100 137 249 285 294 314 327 333 334 339 339 328 324 328 331 332 334 332 330 329 327 326 326 329 337 339 328 310 308 318 333 326 326 332 331 322 314 319
96 344 273 275 289 303 311 316 318 317 325 324 317 320 321 322 324 323 321 327 332 325 324 325 323 327 315 317 323 325 330 344 345 330 325 325 329 338
268 274 295 293 291 288 294 307 316 316 319 315 313 314 314 310 313 317 319 319 319 319 320 318 323 334 347 354 340 328 332 339 347 353 353 351 333 340
301 291 289 292 294 295 294 300 305 302 301 302 306 309 311 313 314 315 315 317 319 325 331 332 336 344 345 344 339 334 340 344 346 353 356 359 359 351